Delta Virtual Airport Information Service

Salt Lake City International Airport

ICAO: KSLC Country: United States
Latitude: 40.7884 Longitude: -111.977
Latest Arrival : UPS2844 (KSDF-KSLC) Latest Departure : JBU320 (1) (KSLC-KFLL)


WX CaptureLIVE
Data provided by noaa.gov | Fetched at 22:19:01

METAR : KSLC 240254Z 00000KT 10SM CLR 06/M07 A3007 RMK AO2 SLP181 T00561067 56008 $

TAF : KSLC 240307Z 2403/2506 16005KT P6SM FEW150 FM241900 29012G22KT P6SM SCT090 BKN120 FM250300 35011G20KT P6SM VCSH FEW050 BKN070


Runway Data for KSLC
Data provided by openaviationdata.com

Runway ID Mag Var Hdg Length Elevation Surface ILS Freq ILS Id ILS Slope
14 14 138° 4892 ft 4226 ft Asphalt -- -- --
16L 14 160° 12011 ft 4226 ft Asphalt 109.5 IMOY 3
16R 14 160° 12006 ft 4226 ft Concrete 111.9 IUAT 3
17 14 165° 9602 ft 4226 ft Asphalt 111.5 IBNT 3
32 14 318° 4892 ft 4226 ft Asphalt -- -- --
34L 14 340° 12006 ft 4226 ft Concrete 111.9 IUUH 3
34R 14 340° 12011 ft 4226 ft Asphalt 109.5 ISLC 3
35 14 345° 9602 ft 4226 ft Asphalt 110.1 IUTJ 3

Salt Lake City International Airport, United States
Use only for reference purposes



Not for navigational purposes.